Terminal Aerodrome Forecast
Issued by NWS Mt. Holly, NJ

Home | Current Version | Previous Version | Text Only | Print | Product List | Glossary On
Versions: 1 2 3 4 5 6 7 8 9 10 11 12 13 14 15 16 17 18 19 20 21 22 23 24
000
FTUS41 KPHI 281503 AAA
TAFPHL
TAF AMD
KPHL 281503Z 2815/2918 VRB03KT P6SM SCT250
     FM281800 16008KT P6SM FEW040
     FM290000 17005KT P6SM SKC
     FM291000 24005KT P6SM SCT120=

USA.gov is the U.S. government's official web portal to all federal, state and local government web resources and services.